User: anonymous   Login
Location: Asheville, NC
(35.6000°N, 82.5500°W)
Time: 14:57:59
(UTC-05:00)
Language:

BUGSAT 1 - Orbit

View from above orbital plane
View from above orbital plane
View from above satellite
View from above satellite

Ground track
Ground track

The orbit data is extracted from the following two-line orbital elements,

1 40014U 14033E   18018.31163955  .00000808  00000-0  78980-4 0  9993
2 40014  97.9680 311.2360 0031623 335.3774  24.5922 14.94964210195349
Epoch (UTC): 18 January 2018 07:28:45
Eccentricity: 0.0031623
inclination: 97.9680°
perigee height: 560 km
apogee height: 604 km
right ascension of ascending node: 311.2360°
argument of perigee: 335.3774°
revolutions per day: 14.94964210
mean anomaly at epoch: 24.5922°
orbit number at epoch: 19534

The dashed part of the orbit path shows where the satellite is in the earth's shadow,  

DLR